Status Flugplatz

Der Flugplatz ist offen
PPR Regelung ! PJE !!!

123.15 MHz
RWY 05/23

flüger beizli - Öffnungszeiten
Freitag ab 16:00
Samstag +Sonntag ab 11:00
Bei schönem Wetter öffnen wir früher! Tel.: 079 234 07 74

Herzlich willkommen auf der Homepage des Flugplatz Biel-Kappelen

Wir freuen uns über Ihren Besuch auf unserem schönen Flugplatz im Berner Seeland. Ob zu Fuss, per Velo, Motorrad, Auto oder Flugzeug Sie sind uns jederzeit herzlich willkommen. 


 

Wetter Kappelen

 


 

[source: ADDS]
METAR
LSZG 240320Z AUTO 23017KT 9999 FEW000 BKN050 06/01 Q1010 =
TAF
SR / SS: 06:19 / 17:10 UTC ( 2017-02-24)

 


 

Besucherzähler

HeuteHeute9
Seit BeginnSeit Beginn82069
Guests 1

Flugplatz Biel-Kappelen LSZP - 123.15MHz - 032 384 46 84

Email: Diese E-Mail-Adresse ist vor Spambots geschützt! Zur Anzeige muss JavaScript eingeschaltet sein!
www.lszp.ch
2017 © by mb

Zum Anfang